TimeMDT,TemperatureF,Dew PointF,Humidity,Sea Level PressureIn,VisibilityMPH,Wind Direction,Wind SpeedMPH,Gust SpeedMPH,PrecipitationIn,Events,Conditions,WindDirDegrees,DateUTC
12:55 AM,50.4,17.6,27,29.84,10.0,ENE,10.4,-,N/A,,Clear,70,2012-10-19 06:55:00
1:55 AM,48.9,19.8,32,29.85,10.0,West,5.8,-,N/A,,Clear,260,2012-10-19 07:55:00
2:55 AM,45.1,19.8,36,29.86,10.0,NNW,5.8,-,N/A,,Clear,330,2012-10-19 08:55:00
3:55 AM,45.0,19.6,36,29.86,10.0,North,4.6,-,N/A,,Clear,350,2012-10-19 09:55:00
4:55 AM,45.3,20.3,37,29.86,10.0,NNE,8.1,-,N/A,,Clear,20,2012-10-19 10:55:00
5:55 AM,43.7,22.5,43,29.88,10.0,SSE,3.5,-,N/A,,Clear,150,2012-10-19 11:55:00
6:55 AM,41.4,20.7,44,29.91,10.0,East,4.6,-,N/A,,Clear,90,2012-10-19 12:55:00
7:55 AM,42.1,19.6,41,29.95,10.0,Calm,Calm,-,N/A,,Clear,0,2012-10-19 13:55:00
8:55 AM,50.9,20.7,30,29.95,10.0,Calm,Calm,-,N/A,,Clear,0,2012-10-19 14:55:00
9:55 AM,60.1,21.4,23,29.97,10.0,SSE,3.5,-,N/A,,Clear,150,2012-10-19 15:55:00
10:55 AM,68.4,21.2,17,29.93,10.0,Calm,Calm,-,N/A,,Clear,0,2012-10-19 16:55:00
11:55 AM,75.4,15.4,10,29.89,10.0,NNE,6.9,-,N/A,,Clear,30,2012-10-19 17:55:00
12:55 PM,78.6,17.1,10,29.87,10.0,Calm,Calm,-,N/A,,Clear,0,2012-10-19 18:55:00
1:55 PM,81.0,14.7,8,29.82,10.0,NNW,4.6,-,N/A,,Clear,330,2012-10-19 19:55:00
2:55 PM,82.6,16.0,8,29.80,10.0,Calm,Calm,-,N/A,,Clear,0,2012-10-19 20:55:00
3:55 PM,82.9,15.1,8,29.78,10.0,WNW,3.5,-,N/A,,Clear,290,2012-10-19 21:55:00
4:55 PM,82.8,13.1,7,29.77,10.0,Calm,Calm,-,N/A,,Clear,0,2012-10-19 22:55:00
5:55 PM,81.7,15.3,8,29.78,10.0,Calm,Calm,-,N/A,,Clear,0,2012-10-19 23:55:00
6:55 PM,73.4,19.0,13,29.81,10.0,SE,3.5,-,N/A,,Clear,140,2012-10-20 00:55:00
7:55 PM,68.4,21.4,17,29.83,10.0,SE,3.5,-,N/A,,Clear,140,2012-10-20 01:55:00
8:55 PM,59.5,20.3,22,29.83,10.0,East,5.8,-,N/A,,Clear,100,2012-10-20 02:55:00
9:55 PM,60.4,20.3,21,29.80,10.0,SE,5.8,-,N/A,,Clear,130,2012-10-20 03:55:00
10:55 PM,59.2,20.7,23,29.78,10.0,SE,5.8,-,N/A,,Clear,140,2012-10-20 04:55:00
11:55 PM,58.6,21.7,24,29.77,10.0,SSE,5.8,-,N/A,,Clear,150,2012-10-20 05:55:00